Samuel Simoes

Olheiro-Chefe - Chaves
3 Abr 2027
Sábado
Processo

Personalidade

Adaptabilidade (14) Ambição (17) Controvérsia (17) Lealdade (7) Pressão (16) Profissionalismo (17) Espírito Esportivo (12) Temperamento (7)

Perfil

Estilo de Treinamento Democrático
Licença Continental A
Determinação 4
Gestão de Pessoas 8
Motivação 5
Disciplina 6
Satisfação no Trabalho
56%
Fadiga
0%
Função Olheiro-Chefe
Salário 20.6K p/s
Contrato 14.03.2029

Desempenho

Comportamento Bom
Eficácia do Treinamento
28%
Desenvolvimento do Jogador
35%
Prevenção de Lesões
20%
Implementação Tática
50%

Eventos Recentes

Avaliou um jogador agora
Participou de uma reunião de recrutamento agora
Avaliou um jogador agora
Avaliou um jogador agora
Avaliou um jogador 7d atrás
Avaliou um jogador 7d atrás
Avaliou um jogador 7d atrás
Avaliou um jogador 7d atrás

Monitorando agora

201
Jogador Clube Status Habilidade Confiança Observado Última observação Último voto
Pedro Rocha Juventude Ativo 112 / 116 40% 7 02.04.2027 -
William Rovida Pro Patria Ativo 116 / 98 40% 2 02.04.2027 -
Evidence Billiat Ajax Cape Town Ativo 111 / 125 40% 3 01.04.2027 -
Matteo Rizzo Campobasso Ativo 103 / 112 40% 1 01.04.2027 -
Alfie Whiteman Oliveirense Ativo 105 / 96 40% 5 31.03.2027 -
Martin Jedlička Banik Ostrava Ativo 112 / 133 40% 2 31.03.2027 -
Yanis Hénin Aswan Ativo 100 / 86 40% 2 30.03.2027 -
Henrich Ravas Cracovia Ativo 90 / 112 40% 2 29.03.2027 -
Jan Koutný Sigma Olomouc Ativo 111 / 125 40% 4 29.03.2027 -
Denys Ihnatenko Livyi Bereh Ativo 102 / 105 40% 2 27.03.2027 -
Vitor Eudes Fluminense Ativo 137 / 124 40% 7 27.03.2027 -
Akpan Udoh Mosta Ativo 85 / 89 40% 1 26.03.2027 -
Sébastien Cibois Portimonense Ativo 113 / 122 40% 4 25.03.2027 -
Egoitz Arana Real Sociedad Ativo 114 / 108 40% 3 25.03.2027 -
Timur Kraikov Sokol Ativo 77 / 106 40% 3 24.03.2027 -
Shamal George Cheltenham Town Ativo 107 / 107 40% 2 23.03.2027 -
Mathew Hudson Oldham Athletic Ativo 97 / 109 40% 2 22.03.2027 -
Manuel Baldé Wadi Degla Ativo 110 / 92 40% 3 22.03.2027 -
Daniil Frolkin Fakel Ativo 111 / 93 40% 2 20.03.2027 -
Ilja Tuseev Chelyabinsk Ativo 90 / 100 40% 2 19.03.2027 -
Mohamed Camara Asante Kotoko Ativo 110 / 106 40% 2 19.03.2027 -
Dimitar Sheytanov CSKA 1948 Ativo 125 / 116 40% 2 17.03.2027 -
Abderrahmane Medjadel ASO Chlef Ativo 91 / 116 40% 1 17.03.2027 -
Martin Melichar Pribram Ativo 90 / 83 40% 1 12.03.2027 -
Luke Southwood Bristol Rovers Ativo 112 / 111 40% 1 10.03.2027 -
Francisco Tinaglini Panserraikos Ativo 112 / 110 40% 1 10.03.2027 -
Killian Cahill Leyton Orient Ativo 97 / 110 40% 1 09.03.2027 -
Ivan Pakholiuk Kolos Ativo 128 / 109 40% 1 09.03.2027 -
Ricardo Velho Aris Thessaloniki Ativo 114 / 127 40% 3 08.03.2027 -
Leonardo Marson Gubbio Ativo 109 / 98 40% 1 08.03.2027 -
Matouš Trmal Teplice Ativo 101 / 128 40% 3 06.03.2027 -
Ivan Lomaev Ufa Ativo 109 / 99 40% 3 05.03.2027 -
Đorđe Nikolić Cukaricki Ativo 107 / 128 40% 1 02.03.2027 -
Nikita Kokarev Krylya Sovetov Ativo 132 / 121 40% 1 01.03.2027 -
Zach Hemming Chesterfield Ativo 121 / 100 40% 1 01.03.2027 -
Aymen Mouyet Military Production Ativo 84 / 89 40% 1 28.02.2027 -
Nikos Christogeorgos OFI Ativo 104 / 95 40% 1 25.02.2027 -
Yurii-Volodymyr Hereta Rukh Ativo 89 / 112 40% 1 25.02.2027 -
Dmytro Matsapura Prykarpattia Ativo 105 / 101 40% 1 24.02.2027 -
Jakub Bielecki Ruch Ativo 113 / 112 40% 1 17.02.2027 -
Pedro Miguéis Chertanovo Ativo 60 / 67 40% 1 17.02.2027 -
Jordan Amissah Burton Albion Ativo 98 / 109 40% 2 15.02.2027 -
Sławomir Abramowicz Jagiellonia Ativo 141 / 134 40% 1 15.02.2027 -
Jan Bačkovský Dukla Prague Ativo 122 / 105 40% 3 11.02.2027 -
Anton Zhylkin Karpaty Ativo 89 / 93 40% 2 11.02.2027 -
Bogdan Ovsyannikov Orenburg Ativo 103 / 106 40% 1 04.02.2027 -
Myles Roberts Doncaster Rovers Ativo 115 / 100 40% 1 04.02.2027 -
Marcelo Miño Debrecen Ativo 106 / 103 40% 1 31.01.2027 -
Oleksandr Saputin Zorya Ativo 103 / 132 40% 1 30.01.2027 -
Guilherme Pires Sporting CP Rejeitado 81 / 96 67% 3 23.01.2027 Rejeitar
Filip Samurović Radnik Surdulica Ativo 86 / 111 40% 1 19.01.2027 -
Heorhii Yermakov Metalist Ativo 107 / 120 40% 1 18.01.2027 -
Volodymyr Makhankov Vorskla Ativo 103 / 99 40% 1 17.01.2027 -
Will Dennis Milton Keynes Dons Ativo 108 / 99 40% 1 11.01.2027 -
Edarlyn Reyes Arsenal Tula Ativo 131 / 120 40% 5 29.12.2026 -
Alexandr Saplinov Volga Ativo 108 / 104 40% 1 28.12.2026 -
Solly Khunyedi Bloemfontein Celtic Ativo 114 / 104 40% 2 27.12.2026 -
Jorge Obregón Deportivo Pasto Ativo 108 / 125 40% 1 27.12.2026 -
Jay-Roy Grot OB Ativo 109 / 108 40% 2 26.12.2026 -
Marcus Browne AFC Wimbledon Ativo 113 / 105 40% 1 26.12.2026 -
Vitor Hugo Lusitânia Lourosa Ativo 93 / 109 40% 1 26.12.2026 -
Szymon Weirauch Lechia Ativo 109 / 100 40% 1 25.12.2026 -
Matty Stevens AFC Wimbledon Ativo 91 / 96 40% 1 24.12.2026 -
Midana Cassamá Portimonense Ativo 115 / 113 40% 1 24.12.2026 -
Danyil Alefirenko Chornomorets Ativo 112 / 116 40% 7 22.12.2026 -
Kellyn Acosta Pogon Ativo 118 / 138 40% 1 22.12.2026 -
Jerónimo Porto Lapegüe Slask Ativo 122 / 123 40% 2 21.12.2026 -
Beryly Lubala CSKA 1948 Ativo 120 / 111 40% 1 21.12.2026 -
Martin Trnovský Podbrezova Ativo 122 / 120 40% 1 20.12.2026 -
Luca Martínez Dupuy Godoy Cruz Ativo 139 / 114 40% 2 19.12.2026 -
Themba Manyama Ajax Cape Town Ativo 112 / 112 40% 2 19.12.2026 -
Mariusz Stępiński Korona Ativo 109 / 119 40% 1 19.12.2026 -
Mikhail Gainov Dinamo Stavropol Ativo 66 / 75 40% 1 19.12.2026 -
Marcelo Estigarribia Unión de Santa Fe Ativo 113 / 124 40% 1 16.12.2026 -
Daniel Vašulín Zbrojovka Brno Ativo 114 / 109 40% 1 14.12.2026 -
Chinonso Offor Baltika Ativo 107 / 111 40% 1 14.12.2026 -
James Rodrigues Nart Ativo 99 / 96 40% 1 14.12.2026 -
Fernando Tapia Club America Ativo 133 / 127 40% 1 13.12.2026 -
Milan Tučić Honved Ativo 118 / 101 40% 1 13.12.2026 -
Yann Kitala Vizela Ativo 90 / 100 40% 1 12.12.2026 -
Carlos Gutiérrez Montana Ativo 123 / 88 40% 1 12.12.2026 -
Leandro Dias Pacos de Ferreira Ativo 113 / 97 40% 1 12.12.2026 -
Matheus Donelli Corinthians Ativo 114 / 117 40% 1 11.12.2026 -
Luka Baš Koper Ativo 89 / 109 40% 1 09.12.2026 -
George Puşcaş Dinamo Bucharest Rejeitado 112 / 111 40% 5 07.12.2026 Rejeitar
Mohamed Ofkir Valerenga Ativo 102 / 99 40% 1 06.12.2026 -
Bogdan Petrović TSC Ativo 112 / 105 40% 1 06.12.2026 -
Kagiso Malinga Bidvest Wits Ativo 92 / 101 40% 4 05.12.2026 -
Thiago Calone All Boys Ativo 115 / 106 40% 1 04.12.2026 -
Ciprian Coman Pandurii Ativo 109 / 113 40% 2 03.12.2026 -
Lazar Tufegdžić Cukaricki Ativo 98 / 106 40% 1 03.12.2026 -
Kwame Opoku Asante Kotoko Ativo 86 / 109 40% 4 02.12.2026 -
Agustín Venezia Iquique Ativo 126 / 123 40% 2 01.12.2026 -
Ramon Swindon Town Ativo 104 / 92 40% 2 01.12.2026 -
Teboho Tlolane Golden Arrows Ativo 125 / 106 40% 1 01.12.2026 -
Pablo Fernández Leiria Ativo 117 / 111 40% 1 29.11.2026 -
Đorđe Jovanović Radnik Surdulica Ativo 122 / 114 40% 1 29.11.2026 -
Karlo Špeljak Lucko Ativo 82 / 102 40% 1 29.11.2026 -
Peter Itodo Metalist Ativo 98 / 101 40% 2 27.11.2026 -
Stefan Vukić Rudes Ativo 115 / 120 40% 3 26.11.2026 -
Ali Soliman Masr El Makasa Ativo 111 / 135 40% 1 26.11.2026 -
Wallace Yan Flamengo Ativo 118 / 127 40% 1 26.11.2026 -
Ellis Iandolo Colchester United Ativo 109 / 93 40% 1 25.11.2026 -
Nduduzo Sibiya Golden Arrows Ativo 136 / 96 40% 2 24.11.2026 -
Jordan Graham Newport County Ativo 115 / 121 40% 1 24.11.2026 -
John Okoye Ebuka Ittihad Ativo 107 / 103 40% 2 23.11.2026 -
Alibek Aliev CFR Cluj Ativo 90 / 115 40% 1 22.11.2026 -
Facundo Castro Nueva Chicago Ativo 100 / 110 40% 1 22.11.2026 -
Harry Cornick AFC Wimbledon Ativo 99 / 96 40% 1 21.11.2026 -
Edwar López Deportes Tolima Ativo 117 / 124 40% 7 20.11.2026 -
Alejandro Organista Puebla Ativo 117 / 124 40% 1 20.11.2026 -
Lucas Di Yorio Santos Laguna Ativo 128 / 104 40% 1 19.11.2026 -
Lazar Mijović Cukaricki Ativo 109 / 110 40% 2 18.11.2026 -
Jose Barrios Cortulua Ativo 120 / 130 40% 2 17.11.2026 -
Benjamin Kanurić Admira Wacker Ativo 111 / 104 40% 1 17.11.2026 -
Qara Ozobic Inter Ativo 101 / 120 40% 1 13.11.2026 -
Ondrej Duda Zamalek Ativo 128 / 127 40% 2 11.11.2026 -
Rifat Zhemaletdinov Ural Ativo 135 / 113 40% 1 11.11.2026 -
Jáder Obrian Santa Fe Ativo 96 / 109 40% 3 09.11.2026 -
Elias Manoel Tijuana Ativo 93 / 124 40% 1 09.11.2026 -
David Barbona Defensa y Justicia Ativo 124 / 133 40% 4 07.11.2026 -
Agustín Gallo Tristán Suárez Ativo 92 / 123 40% 2 07.11.2026 -
Diego Gallegos Morelia Ativo 101 / 95 40% 1 07.11.2026 -
Gabriel Báez Talleres Ativo 113 / 128 40% 1 05.11.2026 -
Franco Cristaldo Talleres Ativo 141 / 119 40% 1 05.11.2026 -
Viktor Hamsik FK Senica Ativo 78 / 109 40% 1 04.11.2026 -
Maximiliano Gómez Nacional Ativo 107 / 107 40% 1 02.11.2026 -
Ole Sæter Valerenga Ativo 132 / 128 40% 1 02.11.2026 -
Bautista Arricau OB Ativo 84 / 112 40% 1 31.10.2026 -
Bryan Róchez Leiria Ativo 104 / 110 40% 2 30.10.2026 -
Mauro Méndez Tigre Ativo 112 / 114 40% 1 30.10.2026 -
José David Ramírez Leon Ativo 109 / 108 40% 1 29.10.2026 -
Alejandro Melo Temperley Ativo 136 / 110 40% 1 27.10.2026 -
Tomás Molina Argentinos Juniors Ativo 111 / 133 40% 2 26.10.2026 -
Esteban da Silva Racing Ativo 103 / 105 40% 3 23.10.2026 -
Emiliano Marcondes OB Ativo 120 / 111 40% 2 22.10.2026 -
Ezequiel Almirón Estudiantes Ativo 130 / 96 40% 3 22.10.2026 -
Tobías Leiva Estudiantes Ativo 121 / 111 40% 1 22.10.2026 -
Davo Penafiel Ativo 109 / 104 40% 1 22.10.2026 -
Alberto Soro Dinamo Bucharest Ativo 139 / 120 40% 1 22.10.2026 -
Wandile Duba Bidvest Wits Ativo 109 / 113 40% 1 21.10.2026 -
Archil Kakabadze Tskhinvali Ativo 117 / 120 40% 1 21.10.2026 -
Franco Fagúndez Estudiantes Ativo 122 / 122 40% 3 19.10.2026 -
Rúben Alves Penafiel Ativo 118 / 111 40% 1 19.10.2026 -
Evidence Mokoena Platinum Stars Ativo 81 / 93 40% 2 17.10.2026 -
Enzo Avaro Mitre Ativo 124 / 126 40% 2 16.10.2026 -
Johan Martínez Deportivo Cali Ativo 126 / 114 40% 1 16.10.2026 -
Diego Becker Tristán Suárez Ativo 129 / 115 40% 1 16.10.2026 -
Facundo Pons San Martín Ativo 99 / 130 40% 3 15.10.2026 -
Akinkunmi Amoo Ismaily Ativo 137 / 110 40% 1 14.10.2026 -
Rodin Quiñónes Dinamo Batumi Ativo 88 / 100 40% 2 12.10.2026 -
Leandro Suhr Boston River Ativo 97 / 134 40% 2 09.10.2026 -
Julián Cosi Madryn Ativo 128 / 125 40% 1 09.10.2026 -
Gustavo Cazonatti Mirassol Ativo 135 / 105 40% 1 09.10.2026 -
Bruno Larregui Juventud Ativo 109 / 131 40% 2 08.10.2026 -
Yhormar Hurtado Junior Ativo 102 / 102 40% 1 08.10.2026 -
Rodrigo Melo Estudiantes Ativo 130 / 117 40% 1 08.10.2026 -
Michael Vadulli Audax Italiano Ativo 125 / 124 40% 1 07.10.2026 -
Enzo González Defensores Ativo 92 / 103 40% 1 01.10.2026 -
Jhon Murillo America de Cali Ativo 130 / 130 40% 1 29.09.2026 -
Ramiro Ruiz Rodríguez Atlético Tucumán Ativo 132 / 132 40% 3 28.09.2026 -
Lucas Cano All Boys Ativo 115 / 126 40% 2 28.09.2026 -
Marcus Vinicius Deportivo Pereira Ativo 122 / 97 40% 1 27.09.2026 -
Michael Nike Patriotas Ativo 116 / 110 40% 2 24.09.2026 -
Emiliano Saliadarre Miramar Misiones Ativo 107 / 113 40% 2 21.09.2026 -
Marcelo Torres Gimnasia La Plata Ativo 138 / 104 40% 2 21.09.2026 -
José Bica Leixões Ativo 92 / 92 40% 1 20.09.2026 -
Rodrigo Rivero Wanderers Ativo 119 / 95 40% 1 17.09.2026 -
Julián Brea Cobresal Ativo 96 / 92 40% 1 16.09.2026 -
Marco Miori Alvarado Ativo 121 / 107 40% 1 16.09.2026 -
Jorge Ceará Ativo 107 / 114 40% 1 14.09.2026 -
Nicolás Sosa Racing Ativo 111 / 121 40% 1 10.09.2026 -
Alejo Cruz Juventud Ativo 118 / 105 40% 1 10.09.2026 -
Enzo Cabrera Danubio Ativo 93 / 124 40% 1 09.09.2026 -
Ruyery Blanco Alianza Petrolera Ativo 96 / 114 40% 1 09.09.2026 -
Corey Baird CF Montreal Ativo 102 / 129 40% 2 08.09.2026 -
Victor Mbaoma Tusker Ativo 79 / 80 40% 1 06.09.2026 -
Francisco Bonfiglio Boston River Ativo 121 / 103 40% 2 05.09.2026 -
Patrick Preciado Deportivo Pasto Ativo 98 / 111 40% 1 01.09.2026 -
Jhonatan Candia Barracas Central Ativo 133 / 122 40% 1 01.09.2026 -
Bautista Tomatis Racing Ativo 124 / 99 40% 1 28.08.2026 -
Gustavo Torres Atletico Nacional Ativo 106 / 130 40% 2 27.08.2026 -
Daniel Valencia America de Cali Ativo 138 / 135 40% 1 27.08.2026 -
Lucas Carrizo Plaza Colonia Ativo 127 / 110 40% 2 25.08.2026 -
Joaquín Zeballos Wanderers Ativo 115 / 91 40% 1 25.08.2026 -
Razvan Puscas Astra Ativo 135 / 97 40% 1 24.08.2026 -
Adrián Parra Deportes Tolima Ativo 106 / 131 40% 1 23.08.2026 -
Agustín Paz Progreso Ativo 113 / 108 40% 1 22.08.2026 -
Mauricio Márquez Caracas Ativo 109 / 112 40% 1 19.08.2026 -
Federico Martínez Liverpool Montevideo Ativo 108 / 116 40% 1 19.08.2026 -
Marcos Camarda Santiago Wanderers Ativo 124 / 99 40% 2 14.08.2026 -
Xavier Biscayzacú Defensor Sporting Ativo 105 / 134 40% 1 13.08.2026 -
Nicolás Orellana Audax Italiano Ativo 112 / 121 40% 1 12.08.2026 -
Juan Dinenno Pumas UNAM Ativo 123 / 139 40% 1 12.08.2026 -
Luciano Cosentino Wanderers Ativo 111 / 106 40% 1 09.08.2026 -
Esteban Obregón Montevideo City Torque Ativo 108 / 103 40% 1 09.08.2026 -
Clemente Montes Universidad Catolica Ativo 134 / 128 40% 1 08.08.2026 -
Cristian Núñez Huracán Ativo 93 / 106 40% 1 03.08.2026 -
Juan Sebastián Rivero Progreso Ativo 106 / 103 40% 1 03.08.2026 -
Matías Gallegos Antofagasta Ativo 119 / 98 40% 1 03.08.2026 -
Juan David Rueda Alianza Petrolera Ativo 104 / 90 40% 1 03.08.2026 -